Location: Acton
(51.4942°N, 0.2232°W)
Time: 14:13:41
(UTC+00:00)

Okean 1-7 Rocket - Pass Details

Date: 19 January 2021
Orbit: 615 x 650 km, 82.5° (Epoch: 28 February)

Event Time Altitude Azimuth Distance (km) Brightness Sun altitude
Exits shadow 06:16:02 14° 330° (NNW) 1,809 5.5 -15.1°
Maximum altitude 06:19:29 35° 269° (W) 1,041 4.2 -14.5°
Drops below altitude 10° 06:23:35 10° 204° (SSW) 2,031 6.1 -13.9°
Sets 06:25:56 0° 196° (SSW) 2,929 7.0 -13.6°
